• MPC Preparation (Info)

  • MPEC 2016-P55 : 2016 PC8

    The following Minor Planet Electronic Circular may be linked-to from your own Web pages, but must not otherwise be redistributed electronically.

    A form allowing access to any MPEC is at the bottom of this page.


    Read MPEC 2016-P54 Read MPEC 2016-P56


    M.P.E.C. 2016-P55                                Issued 2016 Aug. 7, 15:27 UT
    
         The Minor Planet Electronic Circulars contain information on unusual
             minor planets and routine data on comets.  They are published
        on behalf of Division F of the International Astronomical Union by the
              Minor Planet Center, Smithsonian Astrophysical Observatory,
                              Cambridge, MA 02138, U.S.A.
    
                 Prepared using the Tamkin Foundation Computer Network
    
                                  MPC@CFA.HARVARD.EDU
                URL https://www.minorplanetcenter.net/    ISSN 1523-6714
    
                                       2016 PC8
    
    Observations:
         K16P08C* C2016 08 03.50197 22 13 11.274-15 47 22.47         21.6 wLEP055F51
         K16P08C  C2016 08 03.51299 22 13 11.063-15 48 07.67         21.8 wLEP055F51
         K16P08C  C2016 08 03.52403 22 13 10.842-15 48 52.98         21.7 wLEP055F51
         K16P08C  C2016 08 03.53508 22 13 10.633-15 49 38.41         21.6 wLEP055F51
         K16P08C |C2016 08 05.21680 22 13 20.34 -17 48 15.4          21.0 VuEP055807
         K16P08C |C2016 08 05.22116 22 13 20.22 -17 48 35.0          21.2 VuEP055807
         K16P08C |C2016 08 05.22597 22 13 20.19 -17 48 56.3          21.1 VuEP055807
         K16P08C |C2016 08 05.23013 22 13 20.09 -17 49 14.9          21.0 VuEP055807
         K16P08C |C2016 08 07.13431 22 13 22.29 -20 15 17.9          21.5 VuEP055807
         K16P08C |C2016 08 07.13695 22 13 22.24 -20 15 31.1          21.4 VuEP055807
         K16P08C |C2016 08 07.13988 22 13 22.19 -20 15 45.2          21.5 VuEP055807
    
    Observer details:
    807 Cerro Tololo.  Observers T. Linder, R. Holmes.  0.61-m f/6.5 astrograph
        + CCD.
    F51 Pan-STARRS 1, Haleakala.  Observers B. Gibson, T. Goggia, N. Primak,
        A. Schultz, M. Willman.  Measurers K. Chambers, S. Chastel, L. Denneau,
        H. Flewelling, M. Huber, E. Lilly, E. Magnier, R. Wainscoat, C. Waters,
        R. Weryk.  1.8-m Ritchey-Chretien + CCD.
    
    Orbital elements:
    2016 PC8                                                 Earth MOID = 0.0235 AU
    Epoch 2016 July 31.0 TT = JDT 2457600.5                 MPC
    M 252.66170              (2000.0)            P               Q
    n   0.87999878     Peri.  305.04251     +0.24799067     -0.96123948
    a   1.0784864      Node   130.13567     +0.93223091     +0.20295123
    e   0.1666830      Incl.    9.06820     +0.26352639     +0.18662652
    P   1.12           H   24.6           G   0.15           U   8
    Residuals in seconds of arc
    160803 F51  0.3+  0.3+    160805 807  0.6-  0.2+    160807 807  0.0   0.2+
    160803 F51  0.2+  0.1+    160805 807  1.0-  0.0     160807 807  0.2+  0.2-
    160803 F51  0.1-  0.0     160805 807  0.1+  0.0     160807 807  0.4+  0.0
    160803 F51  0.2-  0.4-    160805 807  0.0   0.1-
    
    Ephemeris:
    2016 PC8                 a,e,i = 1.08, 0.17, 9                   q = 0.8987
    Date    TT    R. A. (2000) Decl.     Delta      r     Elong.  Phase     V
    2016 07 08    21 57 32.3 +00 08 27   0.2528  1.2043   133.3    37.9    23.5
    ...
    2016 07 23    22 09 12.0 -05 50 14   0.1831  1.1749   147.8    27.4    22.5
    ...
    2016 07 31    22 12 31.9 -12 06 14   0.1523  1.1571   157.2    19.8    21.8
    ...
    2016 08 06    22 13 20.7 -18 47 07   0.1334  1.1428   163.6    14.5    21.3
    2016 08 07    22 13 19.9 -20 04 50   0.1306  1.1404   164.2    14.0    21.3
    2016 08 08    22 13 16.5 -21 25 41   0.1280  1.1379   164.7    13.6    21.2
    ...
    2016 08 14    22 12 00.6 -30 32 59   0.1151  1.1228   161.7    16.4    21.0
    ...
    2016 08 22    22 07 37.1 -44 41 05   0.1059  1.1018   147.1    29.9    21.2
    ...
    2016 09 06    21 46 42.9 -69 35 30   0.1103  1.0605   115.7    58.9    22.1
    
    A. U. Tomatic                (C) Copyright 2016 MPC           M.P.E.C. 2016-P55
    

    Read MPEC 2016-P54 Read MPEC 2016-P56


    MPEC number:

    Enter an MPEC number in one of the following forms:

    • 1997-B01 (the full form)
    • J97B01 (the packed version of the full form)
    • B01 (the abbreviated form)